Terminal Aerodrome Forecast
Issued by NWS Northern Indiana

Home | Current Version | Previous Version | Text Only | Print | Product List | Glossary On
Versions: 1 2 3 4 5 6 7 8 9 10 11 12 13 14 15 16 17 18 19 20 21
000
FTUS43 KIWX 142300 RRA
TAFFWA
TAF
KFWA 142342Z 1500/1524 22009KT 6SM BR OVC015
     FM150500 18006KT 2SM BR OVC007
     FM151600 17008KT 6SM BR OVC015
     FM152100 16010KT 5SM -RA BR OVC025=

USA.gov is the U.S. government's official web portal to all federal, state and local government web resources and services.